GLONASS-K 2

Last updated on Wed Nov 05 2025 00:02:34 GMT+0000 (Coordinated Universal Time)

1 40315U 14075A 25308.05627293 .00000056 00000+0 00000+0 0 9991 2 40315 63.6136 198.1647 0020453 206.5070 153.4677 2.13101268 85055
UTC large
Height (km)
Speed (km/s)
/
Latitude / Longitude
Inclination (degrees)
Orbital Period (minutes)
Azimuth
Elevation
Range (km)
Doppler Factor

Next 0 passes for location: London (51.5072 / 0.1276)

Sorry there are no passes over London.